Weather in Volostnikovka

Russia / Ulyanovsk Oblast     54°43′25″N   49°01′19″E
temp.,
°C
wind,
m/s
gust,
m/s
humid.,
%
clouds,
%
prec.,
mm/h
press.,
hPa
HPBL,
m
7 may, fri
fri701:00+10ssw4978100 0.0 1015139
04:00+9s4880100 0.0 1015102
07:00+10s4877100 0.0 1015153
10:00+13s61063100 0.0 1015415
13:00+15s71153100 0.0 10151023
16:00+15s6105498 0.0 10141172
19:00+14s6116179 0.0 1013250
22:00+11w2583100 0.0 1015132
8 may, sat
sat801:00+9nnw2396100 0.3 101678
04:00+8n3592100 0.5 1017170
07:00+8nne3491100 0.1 1018184
10:00+10se128469 0.1 1018351
13:00+13sw23768 0.1 1017477
16:00+15s346422 0.3 1015649
19:00+15se36685 0.0 1014129
22:00+12se5107819 0.0 1014144
9 may, sun
sun901:00+11s4107570 0.0 1013191
04:00+12sse51168100 0.0 1013216
07:00+10s378192 0.0 1013160
10:00+14s5869100 0.0 1013359
13:00+16s575799 0.0 1014657
16:00+17s4555100 0.0 10141050
19:00+12nnw5890100 0.1 1015155
22:00+10nnw5893100 0.4 1018232
10 may, mon
mon1001:00+9n4797100 7.9 1019175
04:00+8n5892100 8.3 1022261
07:00+8n5890100 0.6 1024337
10:00+7n5990100 2.0 1026363
13:00+8nne4787100 0.1 1027303
16:00+10ne367471 0.1 1028347
19:00+11nne36711 0.0 1028146
22:00+7nne48860 0.0 1030113
11 may, tue
tue1101:00+7nne46771 0.0 103085
04:00+6nne46800 0.0 103187
07:00+8nne367628 0.0 1033140
10:00+12ne466052 0.0 1033503
13:00+14ne45525 0.0 1032683
16:00+15nne55525 0.0 1031702
19:00+13nne346598 0.0 103165
22:00+11ene2270100 0.0 103111